Weather in Belaya Krinica

Ukraine / Kherson District     47˚20′44″N   33˚11′28″E
temp.,
°C
wind,
m/s
gust,
m/s
humid.,
%
clouds,
%
prec.,
mm/h
press.,
hPa
HPBL,
m
29 november, sun
sun2923:00+8˚wsw348395 0.1 1019164
02:00+5˚wsw227390 0.1 101952
05:00+4˚sw227599 0.0 101950
08:00+5˚ssw2376100 0.0 101995
11:00+7˚wsw2365100 0.0 1020304
14:00+8˚nw1163100 0.0 1020321
17:00+7˚nne2268100 0.0 102069
20:00+7˚ne2372100 0.0 1021116
30 november, mon
mon3023:00+7˚sse2287100 0.0 102160
02:00+7˚se1289100 0.0 102140
05:00+8˚se1282100 0.1 102164
08:00+8˚se3687100 0.1 1022336
11:00+9˚se4673100 0.0 1021422
14:00+9˚ese4670100 0.0 1021508
17:00+7˚e3679100 0.0 1021167
20:00+5˚ene3787100 0.0 1021212
1 december, tue
tue123:00+4˚ne3787100 0.0 1021196
02:00+4˚ne5889100 0.0 1021256
05:00+4˚ne4894100 0.0 1021280
08:00+5˚ene5983100 0.0 1022562
11:00+5˚e6872100 0.0 1022858
14:00+5˚ene5770100 0.0 1022894
17:00+5˚ene5873100 0.0 1022778
20:00+4˚e6974100 0.0 1023698
2 december, wed
wed223:00+5˚ene5975100 0.0 1023652
02:00+4˚ene61078100 0.1 1023574
05:00+3˚ene6984100 0.0 1023471
08:00+3˚e5883100 0.1 1023452
11:00+4˚e5880100 0.0 1023474
14:00+5˚e6980100 0.0 1022531
17:00+5˚e51079100 0.0 1022607
20:00+4˚e5108096 0.0 1023522
3 december, thu
thu323:00+5˚e61081100 0.2 1023567
02:00+5˚ese5108499 0.2 1023479
05:00+5˚ese61088100 0.1 1022419
08:00+6˚se51090100 0.4 1023466
11:00+7˚sse5886100 0.3 1024593
14:00+8˚sse4670100 0.6 1023994
17:00+7˚se368099 0.1 1024254
20:00+6˚se598799 0.3 1024417